Location: Grange Rosano
(44.4500°N, 6.9667°E)
Time: 16:05:16
(UTC+00:00)

ADEOS II - Pass Details

Date: 07 October 2022
Orbit: 799 x 799 km, 98.6° (Epoch: 30 November)

Event Time Altitude Azimuth Distance (km) Brightness Sun altitude
Rises 01:44:43 0° 13° (NNE) 3,319 5.9 -39.8°
Reaches altitude 10° 01:47:04 10° 14° (NNE) 2,384 5.0 -39.5°
Enters shadow 01:48:17 18° 14° (NNE) 1,908 4.4 -39.3°
